Snowfall_Accumulation
0.4 0.1 0.0 0.1 0.0 0.0 0.0 0.2 0.8 1.1 1.7 1.9 1.8 1.8 1.6 1.3 0.7 0.4 0.3 0.1 0.1 0.1 0.0 0.1 0.0 0.0 0.0 0.1 0.1 0.2 0.3 0.6 1.8 0.4 0.0 0.0 0.0 0.0 0.0 0.0 0.0 0.0 0.0
1.6 1.2 1.0 1.0 0.7 0.7 0.6 0.6 1.0 1.6 2.0 2.7 2.8 2.2 1.8 1.6 1.2 0.8 0.4 0.1 0.1 0.1 0.1 0.1 0.0 0.1 0.5 0.0 0.2 0.1 0.2 0.2 1.3 2.6 2.0 2.3 1.7 0.1 0.0 0.0 0.1 0.1 0.2
2.7 2.5 1.9 1.5 1.1 1.1 1.9 2.6 1.1 1.7 1.7 2.4 2.0 2.0 2.2 1.6 0.6 0.2 0.1 0.5 1.2 2.0 2.6 2.4 2.1 0.5 1.3 1.9 1.6 0.2 0.8 0.2 1.3 1.0 3.0 1.8 1.5 0.5 0.1 0.0 0.1 0.4 0.2
3.6 3.4 3.7 3.6 2.4 2.1 1.9 2.2 2.3 3.7 3.9 4.3 3.9 2.9 2.9 1.9 1.3 0.2 0.1 0.3 0.6 1.5 1.8 2.2 2.2 1.8 2.1 0.5 2.4 3.5 4.1 4.0 5.3 6.7 10.2 10.7 6.1 5.8 1.0 3.6 0.2 0.4 1.6
3.9 2.8 2.3 2.6 4.4 2.8 2.6 3.3 4.2 3.7 3.7 4.0 3.5 3.6 5.1 4.9 4.5 3.5 2.1 1.7 1.8 0.9 1.4 0.4 1.5 1.1 0.8 0.8 1.2 1.6 2.2 3.2 6.0 8.5 10.2 9.9 10.0 7.3 6.0 3.3 3.9 2.4 0.1
0.8 1.0 1.4 0.7 1.6 2.5 2.2 2.5 2.2 1.6 3.2 4.6 7.1 5.8 9.8 8.2 6.1 4.8 2.8 3.4 2.8 2.7 2.7 2.2 1.3 0.8 0.8 0.4 0.4 0.6 0.9 2.5 6.0 5.3 6.1 6.5 5.6 4.7 4.1 4.5 4.4 5.0 6.5
0.1 0.2 0.2 0.4 0.5 0.7 1.3 1.1 1.6 2.4 1.7 6.2 8.7 9.9 5.4 8.1 5.4 5.2 5.2 4.5 4.1 3.6 3.5 2.7 2.6 3.2 1.9 0.9 0.9 0.7 0.6 0.6 1.5 2.9 5.1 4.1 3.7 3.3 2.8 4.3 2.9 3.3 5.0
0.1 0.3 0.4 0.7 0.9 1.9 1.6 2.0 2.1 2.0 2.2 2.3 1.2 2.3 2.9 3.2 3.1 7.2 4.8 9.8 6.6 5.5 4.0 3.8 3.9 3.7 3.1 2.8 3.8 3.6 1.9 1.2 1.8 1.9 1.6 2.0 2.7 1.6 1.0 0.9 1.6 3.8 2.8
0.4 1.0 1.1 1.1 1.5 1.6 1.7 1.6 1.4 2.2 1.9 2.0 0.9 0.2 0.1 0.4 0.2 0.0 0.8 2.7 1.9 3.1 5.5 4.8 3.9 4.1 3.8 4.3 4.4 5.3 4.8 4.6 2.6 2.1 1.9 1.5 2.2 0.6 0.2 3.0 6.6 6.1 8.4
1.2 1.5 1.4 1.9 2.0 2.3 2.7 2.7 2.2 1.6 1.3 1.7 3.3 0.2 0.4 1.3 0.6 0.2 0.1 0.2 0.5 1.1 1.6 1.9 3.3 4.1 4.0 2.4 6.1 6.1 7.4 5.0 6.0 6.9 5.4 1.7 1.0 2.3 1.6 3.4 6.5 13.3 10.9
3.6 3.1 1.2 1.3 1.7 1.7 1.7 1.3 0.9 0.9 1.6 3.0 2.7 0.6 1.0 1.3 1.8 1.3 0.0 0.1 1.3 1.5 0.7 0.9 1.0 2.6 2.1 1.7 2.1 3.5 5.0 4.9 6.2 8.6 9.5 8.1 10.5 5.5 4.9 6.1 6.8 9.9 12.5
8.3 9.6 5.8 3.1 4.6 3.2 1.1 1.1 0.8 0.9 1.8 2.5 2.8 2.6 2.8 1.8 1.1 0.5 1.3 1.0 0.7 2.7 1.9 1.8 2.4 0.9 1.3 0.6 1.2 3.8 4.6 5.9 7.6 11.3 12.6 13.4 15.4 14.5 13.6 11.9 10.2 9.6 8.7
10.7 14.1 8.7 9.8 4.6 3.2 0.6 0.5 0.7 0.6 1.1 0.8 1.8 1.5 2.2 2.4 1.9 1.6 1.1 0.9 1.2 2.3 3.1 3.6 2.6 4.5 3.6 6.2 7.7 13.6 13.1 17.6 22.2 23.5 21.3 18.9 14.3 10.1 6.3 5.4 4.2 2.8 3.7
12.8 12.3 12.3 8.7 9.6 9.0 4.1 5.0 2.4 2.3 1.2 1.4 1.1 2.8 1.0 1.2 1.6 1.7 3.4 2.4 3.4 4.5 9.8 15.8 18.1 25.5 23.7 27.0 27.2 26.1 24.8 23.5 21.7 19.6 15.4 10.5 7.5 6.1 6.2 4.6 7.8 5.8 6.0
6.0 4.9 5.5 7.3 8.6 9.5 13.5 17.2 16.5 17.1 6.5 7.7 8.8 5.0 6.9 7.3 6.2 13.1 16.5 11.6 20.7 17.5 17.3 25.7 25.6 23.2 20.8 18.2 15.1 12.1 9.8 7.8 8.3 7.3 7.4 6.9 4.4 4.9 5.0 3.2 4.4 4.9 7.0
2.7 2.5 3.3 3.5 4.9 6.9 10.0 13.1 14.1 18.4 18.1 22.1 18.0 24.0 26.6 22.2 22.4 18.4 19.1 20.4 18.8 19.2 19.3 16.9 14.6 12.7 10.1 7.8 7.9 4.5 3.7 4.6 3.5 6.6 7.0 5.2 5.7 6.1 6.8 4.9 4.9 6.0 6.1
1.6 1.3 3.1 3.2 4.2 7.9 8.8 11.2 15.1 24.2 26.9 30.5 30.2 29.7 29.6 31.4 28.1 30.0 30.4 28.1 26.2 20.7 23.2 18.8 17.9 14.5 13.3 11.2 10.4 7.8 9.2 6.9 7.9 9.7 10.0 11.3 11.0 10.0 11.0 9.0 8.1 5.8 5.2
1.0 5.0 9.9 14.6 17.1 17.2 19.1 22.6 23.4 25.1 25.0 26.8 25.4 23.9 21.7 21.8 21.4 21.7 23.2 22.6 29.4 25.9 24.1 23.7 24.3 23.6 22.8 21.7 17.8 17.7 16.4 13.6 13.5 13.8 12.6 12.5 13.7 14.0 13.4 11.4 12.4 11.2 9.3
7.7 10.0 11.9 11.8 11.4 10.6 9.8 11.7 12.6 13.0 14.7 15.4 14.5 12.9 13.0 11.9 11.2 11.7 11.0 13.4 17.4 19.4 21.8 20.3 21.2 21.3 21.5 21.3 22.1 22.2 23.2 23.6 22.1 21.9 21.3 21.9 21.7 21.1 19.0 17.1 16.6 14.0 12.1
9.0 10.3 8.9 8.5 9.2 9.3 7.8 6.9 7.0 6.2 6.6 6.7 7.5 9.1 7.5 6.0 5.0 6.8 8.4 11.3 12.2 12.5 14.9 16.2 16.6 15.8 16.3 17.9 18.9 19.3 19.3 19.8 20.0 20.8 21.4 20.3 22.0 22.3 23.2 21.4 19.9 20.4 16.1
10.0 9.3 7.6 6.3 6.0 5.6 4.9 4.7 4.5 5.0 5.0 4.0 4.0 3.3 3.6 4.0 4.8 5.4 7.1 8.4 8.6 9.9 11.7 12.2 13.3 13.2 13.3 14.2 13.3 14.6 14.7 14.9 14.6 16.5 18.0 18.3 19.1 22.0 18.4 20.6 20.0 17.5 15.2
6.7 5.9 5.0 5.2 4.2 3.9 3.2 2.7 2.7 3.5 3.1 3.7 4.3 4.0 6.0 5.5 5.0 4.9 4.8 5.5 5.7 5.6 8.0 10.3 11.3 12.4 12.9 14.5 14.2 14.6 13.1 12.3 12.2 13.6 14.3 15.4 16.6 17.2 17.8 18.3 18.0 18.3 15.8
4.0 4.1 3.4 3.6 3.3 2.7 3.1 2.2 3.8 4.1 4.2 3.7 3.9 5.3 5.4 5.4 5.1 5.2 5.3 5.0 4.7 5.0 4.3 7.6 8.2 7.9 8.0 10.2 11.0 14.5 15.2 13.1 12.8 14.9 16.5 14.0 14.4 16.5 17.0 17.4 16.2 18.1 16.9
1.9 2.3 2.5 1.9 2.6 2.1 2.8 3.1 3.4 5.1 6.2 5.2 4.6 4.4 5.4 5.9 6.0 6.2 5.5 5.4 5.4 5.8 6.6 7.5 8.3 9.0 8.5 7.4 8.6 10.0 11.2 12.3 13.0 14.0 17.8 16.7 13.3 13.6 15.8 15.9 15.0 15.6 16.0
1.4 1.9 2.3 2.3 3.0 4.4 4.8 5.0 4.5 2.7 4.0 4.3 4.1 4.2 3.4 4.3 5.0 6.9 7.0 6.7 6.7 8.5 9.3 9.5 9.3 9.2 9.9 10.3 11.6 11.1 10.3 12.0 14.9 16.0 17.1 16.4 14.5 11.9 14.8 15.6 14.1 14.9 14.7
1.6 2.2 2.8 3.1 3.2 4.7 4.9 5.1 4.4 3.0 3.3 3.6 4.1 4.0 4.6 4.9 6.0 7.4 7.6 7.5 8.0 10.2 10.9 11.6 12.2 11.1 10.3 10.5 11.0 11.4 11.3 11.8 13.3 16.1 18.6 17.3 15.2 13.3 13.6 14.2 13.8 15.3 13.4